Regional Weather Roundup
Issued by NWS Pendleton, OR

Home | Current Version | Previous Version | Text Only | Print | Product List | Glossary On
Versions: 1 2 3 4 5 6 7 8 9 10 11 12 13 14 15 16 17 18 19 20 21 22 23 24 25 26 27 28 29 30 31 32 33 34 35 36 37 38 39 40 41 42 43 44 45 46 47 48 49 50
000
ASUS46 KPDT 211425
RWRPDT
PENDLETON REGIONAL WEATHER ROUNDUP
NATIONAL WEATHER SERVICE PENDLETON OREGON
600 AM PST TUE FEB 21 2017

NOTE: FAIR INDICATES FEW OR NO CLOUDS BELOW 12,000 FEET WITH NO
SIGNIFICANT WEATHER AND/OR OBSTRUCTIONS TO VISIBILITY.

# INDICATES UNOFFICIAL STATION AND DATA

WAZ520-211510-
EAST SLOPES OF WASHINGTON CASCADES

CITY            SKY/WX      TMP DP  RH  WIND    PRES   REMARKS
#CLE ELUM HS    N/A         32  31  96  CALM    29.66R
#CLE ELUM LAKE  N/A         N/A N/A N/A S7      29.69R
#GLENWOOD       N/A         33  32  96  CALM    29.70R
#MANASTASH CYN  N/A         32  29  89  CALM    29.65S
#NELSON 3SW     N/A         31  30  96  CALM    29.92S
#NILE           N/A         31  30  96  CALM    28.98R
#TEANAWAY 4NE   N/A         32  32  100 CALM    N/A
#TROUT LAKE 1NE N/A         34  33  96  CALM    29.71R
#TROUT LAKE 1E  N/A         32  31  96  CALM    29.68R
$$

WAZ521-211510-
SIMCOE HIGHLANDS

CITY            SKY/WX      TMP DP  RH  WIND    PRES   REMARKS
#BICKLETON HS   N/A         33  33  100 N5      29.28S
#CENTERVILLE 1SWN/A         32  29  89  CALM    29.67S
#GOLDENDALE 1NE N/A         35  32  89  CALM    N/A
#GOLDENDALE 4W  N/A         34  31  89  CALM    29.70R
#GOODNOE HILLS  N/A         39  35  85  NE2     29.58R
#LYLE 6NE       N/A         35  34  96  NE1     29.67S
#PITT 4SE       N/A         32  31  96  NE1     29.72S
$$

WAZ026-211510-
KITTITAS VALLEY

CITY            SKY/WX      TMP DP  RH  WIND    PRES   REMARKS
ELLENSBURG AP   LGT SNOW    34  31  89  E3      29.67S FOG
#ELLENSBURG CWU N/A         32  31  96  CALM    29.67S
#ELLENSBURG 3NE N/A         32  31  96  CALM    27.78R
#ELLENSBURG 1E  N/A         31  N/A N/A CALM    N/A
#KITTITAS 4N    N/A         32  30  92  CALM    29.71S
#KITTITAS 3S    N/A         32  31  96  CALM    29.73S
#THORP 6N       N/A         32  31  96  CALM    29.74R
$$

WAZ027-211510-
YAKIMA VALLEY

CITY            SKY/WX      TMP DP  RH  WIND    PRES   REMARKS
SUNNYSIDE AP    LGT DRIZZLE 33  33  100 CALM    29.70S
YAKIMA AIRPORT  LGT RAIN    37  35  92  W6      29.70R
YAKIMA-VAGABOND LGT RAIN    35  33  92  E7      29.67R
#DONALD 2NE     N/A         36  28  72  NW1     28.54S
#GRANDVIEW      N/A         35  33  92  CALM    29.74R
#MABTON         N/A         36  35  96  CALM    29.70R
#MOXEE 2E       N/A         35   0  22  CALM    29.70R
#NACHES 2SW     N/A         36  34  92  CALM    29.67R
#TERRACE HTS    N/A         34  33  96  CALM    29.70S
#TOPPENISH      N/A         36  34  92  CALM    29.65R
#WEST VALLEY    N/A         36  34  92  CALM    29.71S
#W YAKIMA       N/A         36  34  92  NW1     29.74R
#WHITE SWAN 5E  N/A         36  35  96  CALM    29.73R
#WILEY CITY 3W  N/A         35  31  85  CALM    29.66R
$$

WAZ028-211510-
LOWER COLUMBIA BASIN...WASHINGTON

CITY            SKY/WX      TMP DP  RH  WIND    PRES   REMARKS
HANFORD         LGT RAIN    36  35  96  NW12    29.69S FOG WCI 28
PASCO           LGT RAIN    38  35  89  NW6     29.71R
PROSSER AWOS    N/A         36  36  100 CALM    29.74R
RICHLAND AWOS   LGT RAIN    38  37  96  NW3     29.72R
#BENTON CITY    N/A         36  35  96  W1      29.63R
#CONNELL 5N     N/A         32  31  96  NW5     29.71S
#CONNELL 5NW    N/A         32  31  96  NW7     29.68R
#ELTOPIA 6NW    N/A         34  33  96  CALM    28.66R
#KAHLOTUS       N/A         36  35  96  N10     29.68R
#KENNEWICK 3S   N/A         37  35  92  CALM    29.71S
#PATERSON       N/A         39  37  92  E7      29.68R
#SAGEMOOR 2W    N/A         35  33  92  NW7     29.55
#TOUCHET 2S     N/A         38  36  92  W7      29.68R
#WEST PASCO     N/A         38  36  92  W5      29.66R
$$

WAZ029-211510-
FOOTHILLS OF THE BLUES...WASHINGTON

CITY            SKY/WX      TMP DP  RH  WIND    PRES   REMARKS
WALLA WALLA AP  FOG         39  39  100 S6      29.66R VSB 1/4
#CLYDE 6NW      N/A         39  37  92  CALM    29.66R
#DAYTON SCHOOL  N/A         41  34  76  SW1     29.67R
#LOWDEN 2SE     N/A         38  37  96  W7      29.64R
#PLEASANT VIEW 1N/A         38  37  96  NW1     29.70R
#PRESCOTT       N/A         41  39  93  CALM    29.64R
#WHITMAN COLLEGEN/A         39  37  92  N5      29.71R
#WAITSBURG 5S   N/A         38  37  96  SW6     29.74R
#WAITSBURG 8N   N/A         39  N/A N/A S3      29.50R
#WALLA WALLA 5E N/A         39  37  92  SW9     N/A
#WALLA WALLA U  N/A         39  38  96  W5      29.68R
#WHITMAN MISSIONN/A         39  37  92  W5      29.70R
$$

WAZ030-211510-
BLUE MOUNTAINS...WASHINGTON

CITY            SKY/WX      TMP DP  RH  WIND    PRES   REMARKS
#DIXIE 5SE      N/A         36  34  92  SW6     29.52R
#SKI BLUEWOOD   N/A         36  33  89  E6      29.54F
$$

ORZ009-041-WAZ024-211510-
COLUMBIA RIVER GORGE

CITY            SKY/WX      TMP DP  RH  WIND    PRES   REMARKS
THE DALLES AP   LGT RAIN    39  39  100 CALM    29.70S VSB 3/4
#ARLINGTON AIRPON/A         38  38  100 CALM    29.71R
#ARLINGTON HS   N/A         40  38  92  CALM    29.61R
#CELILO DOT     N/A         39  37  92  W2      N/A
#LYLE           N/A         39  38  96  N5      29.72S
#MOSIER 1S      N/A         37  34  89  CALM    29.67S
#MURDOCK        N/A         39  38  96  NW1     29.71R
#RUFUS DOT      N/A         40  40  100 W7      N/A
#SMITHVILLE     N/A         39  37  92  N2      29.66R

$$

ORZ510-211510-
NORTH CENTRAL OREGON

CITY            SKY/WX      TMP DP  RH  WIND    PRES   REMARKS
#CHENOWITH 1W   N/A         35  35  100 N2      N/A
#COW CYN RST AREN/A         35  35  100 CALM    N/A
#GRASS VALLEY 1SN/A         36  35  96  CALM    29.80R
#KENT DOT       N/A         37  33  85  N2      N/A
#MAUPIN SCHOOL  N/A         39  36  89  CALM    29.71S
#MORO SCHOOL    N/A         36  36  100 N6      29.72S
#SHANIKO 5WSW   N/A         34  30  85  N5      N/A
#SHANIKO 4NW    N/A         33  32  96  NW2     29.58S
#TYGH VALLEY 2NEN/A         38  36  92  N1      29.67R
#WAPANITIA AIRPON/A         36  35  96  W1      29.69S
#WASCO DOT      N/A         35  33  92  SW3     N/A
#WASCO 5NE      N/A         33  31  92  CALM    29.70R
$$

ORZ511-211510-
CENTRAL OREGON

CITY            SKY/WX      TMP DP  RH  WIND    PRES   REMARKS
BEND AIRPORT    PTCLDY      41  34  76  S10     29.59F
MADRAS AIRPORT  LGT DRIZZLE 34  34  100 N5      29.63F
PRINEVILLE AP   CLOUDY      41  37  86  S7      29.61F
REDMOND AIRPORT MOCLDY      39  34  82  S6      29.59F
#ASHWOOD SCHOOL N/A         38  37  96  CALM    29.60S
#BEND 1SW       N/A         36  35  96  W3      N/A
#BEND-AWBREY    N/A         37  36  96  SW10    29.59F
#BEND-KIM LN    N/A         34  33  96  CALM    29.55F
#CULVER         N/A         34  32  92  CALM    29.55F
#CULVER 8W      N/A         36  33  89  CALM    29.64S
#LAKE BILLY CHINN/A         35  N/A N/A NE3     29.74S
#POWELL BUTTE   N/A         41  33  73  S7      29.60F
#PRINEVILLE 3N  N/A         41  38  89  E7      29.60F
#WARM SPRINGS   N/A         38  36  92  CALM    29.62S

$$


ORZ509-211510-
EAST SLOPES OF OREGON CASCADES

CITY            SKY/WX      TMP DP  RH  WIND    PRES   REMARKS
SISTERS AWOS    N/A         34  32  92  CALM    29.59F
#BLUE BOX PASS  N/A         31  N/A N/A CALM    N/A
#CAMP SHERMAN   N/A         32  30  92  CALM    29.73R
#LA PINE 4NW    N/A         34  31  89  CALM    29.69R
#LAVA BUTTE DOT N/A         35  32  89  S3      N/A
#SISTERS ODOT   N/A         34  N/A N/A CALM    N/A
#SISTERS 3N     N/A         32  30  92  CALM    29.61F
#SUNRIVER       N/A         35  34  96  S3      29.66R
#TUMALO 3W      N/A         36  35  96  SE6     29.48F
#WANOGA BUTTE D N/A         29  29  100 W12     N/A    WCI 19

$$

ORZ044-211510-
LOWER COLUMBIA BASIN...OREGON

CITY            SKY/WX      TMP DP  RH  WIND    PRES   REMARKS
HERMISTON       LGT RAIN    40  40  100 N6      29.69R FOG
#BOARDMAN SCHOOLN/A         40  38  92  N1      29.70R
#BOARDMAN 8SW   N/A         37  36  96  N2      29.70R
#ECHO 8SW       N/A         39  39  100 CALM    29.70R
#I-84 EX 198 DOTN/A         40  39  96  N6      N/A
#IONE SCHOOL    N/A         38  26  62  CALM    29.71R
#UMATILLA       N/A         41  37  86  CALM    29.63R
$$

ORZ507-211510-
NORTHERN FOOTHILLS OF THE BLUES

CITY            SKY/WX      TMP DP  RH  WIND    PRES   REMARKS
PENDLETON AIRPT CLOUDY      38  38  100 NW8     29.64R FOG
#ADAMS 3WNW     N/A         38  36  92  CALM    29.65R
#ATHENA         N/A         38  34  85  CALM    29.68R
#HELIX SCHOOL   N/A         37  36  96  CALM    29.66R
#HELIX 3N       N/A         36  35  96  N7      29.62R
#HOLDMAN 5SE    N/A         30  29  96  CALM    29.80S
#HOLDMAN 6E     N/A         36  35  96  NW7     29.46R
#M-F FERNDALE   N/A         38  35  89  CALM    29.65R
#M-F GROVE ELEM N/A          0  -78  1  CALM    29.64R
#M-FREEWATER 5SEN/A         37  35  92  CALM    29.66R
#PENDLETON DNTN N/A         40  35  82  CALM    29.66R
#PDT AQUATIC CTRN/A         39  39  100 CALM    29.66S
#PDT SUNRIDGE   N/A         39  38  96  CALM    29.67R
#PENDLETON 7NW  N/A         40  36  85  CALM    32.03S
#PILOT ROCK 1S  N/A         39  34  82  CALM    29.66R
#PILOT ROCK     N/A         39  36  89  SE1     29.68R
#TUTUILLA       N/A         38  36  92  CALM    29.66R
#UMAPINE 2E     N/A         38  37  96  W2      29.65R
#WESTON SCHOOL  N/A         38  35  89  CALM    29.59R

$$

ORZ508-211510-
SOUTHERN FOOTHILLS OF THE BLUES

CITY            SKY/WX      TMP DP  RH  WIND    PRES   REMARKS
LEXINGTON       FOG         39  39  100 CALM    29.68R VSB 1/4
#AJAX           N/A         36  30  79  N5      29.81R
#CONDON SCHOOL  N/A         37  36  96  NE2     29.60S
#CONDON 5W      N/A         35  34  96  E1      29.59R
#HEPPNER EOC    N/A         37  36  96  CALM    29.58S
#HEPPNER 4NE    N/A         36  35  96  CALM    29.63S
#LEXINGTON 2SE  N/A         40  38  92  CALM    29.63R
#MIKKALO        N/A         37  35  92  CALM    29.78R
#OLEX 4N        N/A         38  37  96  CALM    29.67R
#RUGGS 5NE      N/A         35  34  96  W3      29.75S
#RUGGS 2SW      N/A         36  35  96  CALM    29.66S

$$

ORZ502-503-211510-
BLUE MOUNTAINS

CITY            SKY/WX      TMP DP  RH  WIND    PRES   REMARKS
MEACHAM         MOCLDY      35  31  85  CALM    29.60R
#BATTLE MTN DOT N/A         37  34  89  SE3     N/A
#GREENHORN 9SW  N/A         36  36  100 CALM    29.72R
#HEPPNER 15SE   N/A         37  34  89  SE2     29.90S
#LADD CYN SMT   N/A         37  34  89  E7      N/A
#LADD CREEK ODOTN/A         35  33  92  SW3     N/A
#LONG CREEK HS  N/A         40  38  92  CALM    N/A
#N POWDER DOT   N/A         42  34  73  S21     N/A    WCI 33
#PIKES PEAK     N/A         33  31  92  NW9     27.99S
#TOLLGATE       N/A         34  33  96  S5      29.52R
#TROY SCHOOL    N/A         36  34  92  SW1     29.56S
#UKIAH          N/A         38  36  92  SE1     29.55S
#WESTON 4E      N/A         39  37  92  S3      29.61R
$$

ORZ505-211510-
JOHN DAY BASIN

CITY            SKY/WX      TMP DP  RH  WIND    PRES   REMARKS
JOHN DAY        MOCLDY      42  36  79  W7      29.68R
#ANTELOPE 9ESE  N/A         39  37  92  CALM    N/A
#MITCHELL 8NW   N/A         39  35  85  CALM    29.44R
#MONUMENT HS    N/A         40  38  92  CALM    29.62R
#MT. VERNON 5SE N/A         38  34  85  E9      29.59S
#SPRAY SCHOOL   N/A         40  N/A N/A CALM    N/A
#WINLOCK        N/A         40  38  92  CALM    29.62R
$$

ORZ506-211510-
OCHOCO AND JOHN DAY HIGHLANDS

CITY            SKY/WX      TMP DP  RH  WIND    PRES   REMARKS
#HORSE RIDGE DO N/A         37  32  82  S16     N/A    WCI 28
#PAULINA SCHOOL N/A         40  35  82  SW7     N/A
#PINE MTN OBS   N/A         29  28  96  CALM    N/A
#PRAIRIE CITY   N/A         42  35  76  E2      29.83S
#SENECA         N/A         35  N/A N/A W16G26  N/A    WCI 25
#SENECA 9NW     N/A         35  32  89  W1      29.67R
$$

ORZ049-211510-
GRANDE RONDE VALLEY

CITY            SKY/WX      TMP DP  RH  WIND    PRES   REMARKS
LA GRANDE       CLOUDY      45  36  70  S8      29.63R
#COVE           N/A         47  38  71  SE16    29.68R WCI 41
#COVE 6NW       N/A         45  37  73  SE6     29.62S
#ELGIN 3N       N/A         34  31  89  NE1     29.63S
#ELGIN 1E       N/A         38  33  82  CALM    N/A
#IMBLER SCHOOL  N/A         43  36  76  S3G31   29.61S
#ISLAND CITY 4N N/A         43  43  100 CALM    29.72R
#UNION 1S       N/A         46  36  68  E16G26  29.63R WCI 39
$$

ORZ050-211510-
WALLOWA COUNTY

CITY            SKY/WX      TMP DP  RH  WIND    PRES   REMARKS
JOSEPH AIRPORT  LGT DRIZZLE 41  32  70  SW7G25  29.62S
#IMNAHA SCHOOL  N/A         50  39  66  SE16G26 29.65R
#IMNAHA 10S     N/A         46  36  68  SW6     29.66S
#JOSEPH 3N      N/A         41  30  65  SW13    29.67S WCI 34
#JOSEPH 3W      N/A         38  33  82  SW3     29.51S
#LOSTINE        N/A         33  31  92  CALM    29.47R
#MT HOWARD 8000 N/A         26  24  92  S15G30  29.58R WCI 14
#PROMISE 1S     N/A         32  31  96  CALM    29.76R
#WALLOWA SCHOOL N/A         33  32  96  CALM    29.63S



$$



USA.gov is the U.S. government's official web portal to all federal, state and local government web resources and services.